Regional Weather Roundup
Issued by NWS

Home | Current Version | Previous Version | Text Only | Print | Product List | Glossary Off
Versions: 1 2 3 4 5 6 7 8 9 10 11 12 13 14 15 16 17 18 19 20 21 22 23 24 25 26 27 28 29 30 31 32 33 34 35 36 37 38 39 40 41 42 43 44 45 46 47 48 49 50

000
ASUS43 KLMK 151610
RWRKY
KENTUCKY REGIONAL WEATHER ROUNDUP
NATIONAL WEATHER SERVICE LOUISVILLE KY
1100 AM EST FRI DEC 15 2017

NOTE "FAIR" INDICATES FEW OR NO CLOUDS BELOW 12,000 FEET
WITH NO SIGNIFICANT WEATHER AND/OR OBSTRUCTIONS TO VISIBILITY.

KYZ001>023-026-027-061>063-070>075-151700-
WESTERN AND SOUTH CENTRAL KENTUCKY

CITY           SKY/WX    TMP DP  RH WIND       PRES   REMARKS
PADUCAH        SUNNY     37  21  52 W9        30.18R WCI  30
HENDERSON      SUNNY     35  22  58 SW7       30.15S WCI  29
OWENSBORO      MOSUNNY   34  21  59 W9        30.16R WCI  27
HOPKINSVILLE   CLOUDY    34  20  58 NW12      30.18R WCI  25
BOWLING GREEN  CLOUDY    33  20  58 W13G22    30.18R WCI  24
GLASGOW        CLOUDY    32  20  63 W9G17     30.15R WCI  24
$$

KYZ024-025-028>034-038-045-046-053-151700-
NORTH CENTRAL KENTUCKY

CITY           SKY/WX    TMP DP  RH WIND       PRES   REMARKS
LOUISVILLE/SDF CLOUDY    33  20  58 W16G25    30.12R WCI  23
LOUISVILLE/LOU CLOUDY    32  21  64 W13G24    30.12R WCI  22
FORT KNOX      CLOUDY    31  20  64 SW12      30.10R WCI  22
$$

KYZ035>037-039>044-047>052-055>060-089>105-151700-
NORTHEAST KENTUCKY

CITY           SKY/WX    TMP DP  RH WIND       PRES   REMARKS
LEXINGTON      CLOUDY    31  18  58 W12       30.08S WCI  22
COVINGTON      CLOUDY    27  20  75 SW8       30.04R WCI  19
FRANKFORT      CLOUDY    31  18  58 W8        30.08R WCI  23
$$

KYZ054-064>069-076>088-106>120-151700-
SOUTHEAST KENTUCKY

CITY           SKY/WX    TMP DP  RH WIND       PRES   REMARKS
JACKSON        CLOUDY    28  17  63 W12G20    30.05R WCI  18
LONDON         CLOUDY    30  19  63 NW10      30.09R WCI  21
SOMERSET       CLOUDY    30  21  69 W9        30.13S WCI  22
MIDDLESBORO    CLOUDY    32  22  67 NW6       30.09R WCI  27
MONTICELLO     CLOUDY    31  23  72 W13G22    30.14R WCI  21
$$





USA.gov is the U.S. government's official web portal to all federal, state and local government web resources and services.